Date String (YYYY-MM-DD hh:mm:ss) UTC,Instrument flags,Ambient pressure (hPa),Sample flow (lpm),Bypass flow (lpm),Sample temperature (°C),Ambient temperature (°C),ASC tube jacket temperature (°C),LED temperature (°C),Box temperature (°C),Sample RH (%),Span deviation,Mass concentration (μg/m³),Mass concentration (μg/m³),Mass concentration (μg/m³)
DateTimeUTC,F1_M11,P_M11,Q1_M11,Q2_M11,T1_M11,T2_M11,T3_M11,T4_M11,T5_M11,U1_M11,ZSPAN_M11,X2_M11,X0_M11,X1_M11
2022-03-24 13:00:00,,0823.7,4.99,0.00,22.8,23.6,00.0,31.5,24.9,11.5,0000.0,0001.31,0002.65,0000.85
2022-03-24 13:01:00,,0823.7,5.00,0.00,22.8,23.4,00.0,31.5,24.9,11.5,0000.0,0001.30,0002.63,0000.86
2022-03-24 13:02:00,,0823.7,5.00,0.00,22.8,23.1,00.0,31.5,24.8,11.4,0000.0,0001.31,0002.66,0000.87
2022-03-24 13:03:00,,0823.8,5.01,0.00,22.8,22.9,00.0,31.5,24.8,11.2,0000.0,0001.30,0003.07,0000.86
2022-03-24 13:04:00,,0823.8,5.00,0.00,22.8,22.7,00.0,31.6,24.7,11.0,0000.0,0001.32,0003.14,0000.87
2022-03-24 13:05:00,,0823.8,4.99,0.00,22.8,22.5,00.0,31.6,24.7,11.3,0000.0,0001.34,0003.18,0000.87
2022-03-24 13:06:00,,0823.8,4.99,0.00,22.8,22.4,00.0,31.6,24.7,11.4,0000.0,0001.33,0003.13,0000.87
2022-03-24 13:07:00,,0823.8,5.01,0.00,22.8,22.3,00.0,31.6,24.7,11.4,0000.0,0001.29,0003.02,0000.87
2022-03-24 13:08:00,,0823.8,5.00,0.00,22.8,22.3,00.0,31.6,24.7,11.4,0000.0,0001.26,0002.95,0000.85
2022-03-24 13:09:00,,0823.8,5.01,0.00,22.8,22.2,00.0,31.7,24.7,11.5,0000.0,0001.26,0002.89,0000.84
2022-03-24 13:10:00,,0823.8,5.00,0.00,22.9,22.2,00.0,31.7,24.7,11.5,0000.0,0001.26,0002.70,0000.85
2022-03-24 13:11:00,,0823.9,5.00,0.00,22.9,22.2,00.0,31.7,24.7,11.4,0000.0,0001.24,0002.62,0000.84
2022-03-24 13:12:00,,0823.9,4.99,0.00,22.9,22.2,00.0,31.7,24.7,11.4,0000.0,0001.26,0002.67,0000.84
2022-03-24 13:13:00,,0823.8,5.00,0.00,22.9,22.1,00.0,31.7,24.7,11.4,0000.0,0001.25,0002.72,0000.84
2022-03-24 13:14:00,,0823.8,5.01,0.00,22.9,22.1,00.0,31.7,24.7,11.5,0000.0,0001.25,0002.57,0000.83
2022-03-24 13:15:00,,0823.9,4.99,0.00,22.9,22.1,00.0,31.7,24.7,11.5,0000.0,0001.21,0002.42,0000.83
2022-03-24 13:16:00,,0823.9,5.00,0.00,22.9,22.1,00.0,31.7,24.7,11.4,0000.0,0001.20,0002.41,0000.82
2022-03-24 13:17:00,,0823.9,4.98,0.00,22.9,22.1,00.0,31.8,24.7,11.4,0000.0,0001.18,0002.38,0000.82
2022-03-24 13:18:00,,0823.9,4.99,0.00,22.9,22.1,00.0,31.8,24.7,11.5,0000.0,0001.18,0002.39,0000.81
2022-03-24 13:19:00,,0823.9,5.00,0.00,22.9,22.1,00.0,31.8,24.7,11.5,0000.0,0001.19,0002.38,0000.82
2022-03-24 13:20:00,,0823.9,5.00,0.00,22.9,22.1,00.0,31.8,24.7,11.4,0000.0,0001.20,0002.74,0000.84
2022-03-24 13:21:00,,0823.9,5.00,0.00,22.9,22.1,00.0,31.8,24.7,11.5,0000.0,0001.17,0003.91,0000.84
2022-03-24 13:22:00,,0823.9,5.02,0.00,22.9,22.1,00.0,31.8,24.7,11.3,0000.0,0001.16,0003.93,0000.84
2022-03-24 13:23:00,,0824.0,5.00,0.00,22.9,22.1,00.0,31.8,24.7,11.4,0000.0,0001.22,0004.73,0000.85
2022-03-24 13:24:00,,0824.0,5.00,0.00,22.9,22.0,00.0,31.8,24.6,11.3,0000.0,0001.21,0004.70,0000.85
2022-03-24 13:25:00,,0824.0,5.00,0.00,22.9,22.0,00.0,31.8,24.6,11.3,0000.0,0001.20,0004.49,0000.84
2022-03-24 13:26:00,,0824.0,5.00,0.00,22.9,22.0,00.0,31.8,24.7,11.5,0000.0,0001.21,0004.51,0000.85
2022-03-24 13:27:00,,0823.9,4.99,0.00,22.9,22.0,00.0,31.8,24.7,11.4,0000.0,0001.26,0004.64,0000.85
2022-03-24 13:28:00,,0823.9,5.00,0.00,22.9,22.0,00.0,31.8,24.7,11.5,0000.0,0001.25,0004.64,0000.85
2022-03-24 13:29:00,,0824.0,5.01,0.00,22.9,22.0,00.0,31.8,24.7,11.5,0000.0,0001.25,0004.65,0000.86
2022-03-24 13:30:00,,0824.0,5.00,0.00,22.9,22.0,00.0,31.8,24.7,11.5,0000.0,0001.28,0004.76,0000.86
2022-03-24 13:31:00,,0824.0,5.00,0.00,22.9,21.9,00.0,31.8,24.6,11.5,0000.0,0001.24,0004.35,0000.85
2022-03-24 13:32:00,,0824.1,4.99,0.00,22.8,21.9,00.0,31.8,24.6,11.4,0000.0,0001.28,0003.12,0000.86
2022-03-24 13:33:00,,0824.0,5.00,0.00,22.8,21.9,00.0,31.8,24.6,11.4,0000.0,0001.31,0003.13,0000.85
2022-03-24 13:34:00,,0824.1,5.00,0.00,22.8,21.9,00.0,31.8,24.6,11.5,0000.0,0001.28,0002.32,0000.85
2022-03-24 13:35:00,,0824.1,5.02,0.00,22.8,22.0,00.0,31.8,24.7,11.5,0000.0,0001.27,0002.26,0000.86
2022-03-24 13:36:00,,0824.0,5.00,0.00,22.8,22.0,00.0,31.8,24.6,11.6,0000.0,0001.30,0002.33,0000.87
2022-03-24 13:37:00,,0824.0,5.00,0.00,22.8,22.0,00.0,31.8,24.6,11.7,0000.0,0001.31,0002.29,0000.88
2022-03-24 13:38:00,,0824.1,4.99,0.00,22.8,22.0,00.0,31.8,24.6,11.6,0000.0,0001.30,0002.26,0000.87
2022-03-24 13:39:00,,0824.1,5.00,0.00,22.8,22.0,00.0,31.8,24.6,11.6,0000.0,0001.35,0002.32,0000.89
2022-03-24 13:40:00,,0824.1,5.01,0.00,22.8,22.0,00.0,31.8,24.6,11.5,0000.0,0001.32,0002.22,0000.89
2022-03-24 13:41:00,,0824.1,5.00,0.00,22.8,22.0,00.0,31.8,24.6,11.5,0000.0,0001.29,0002.24,0000.89
2022-03-24 13:42:00,,0824.1,4.99,0.00,22.8,22.0,00.0,31.8,24.6,11.6,0000.0,0001.30,0002.28,0000.89
2022-03-24 13:43:00,,0824.1,5.00,0.00,22.8,22.0,00.0,31.8,24.6,11.6,0000.0,0001.29,0002.27,0000.88
2022-03-24 13:44:00,,0824.1,5.00,0.00,22.8,22.0,00.0,31.8,24.7,11.6,0000.0,0001.26,0002.25,0000.88
2022-03-24 13:45:00,,0824.1,5.00,0.00,22.9,22.0,00.0,31.8,24.7,11.8,0000.0,0001.23,0002.57,0000.88
2022-03-24 13:46:00,,0824.1,5.00,0.00,22.9,22.0,00.0,31.8,24.7,12.0,0000.0,0001.24,0002.58,0000.88
2022-03-24 13:47:00,,0824.1,5.00,0.00,22.9,22.1,00.0,31.8,24.7,11.4,0000.0,0001.24,0002.56,0000.87
2022-03-24 13:48:00,,0824.1,4.99,0.00,22.9,22.1,00.0,31.8,24.7,11.0,0000.0,0001.22,0002.51,0000.86
2022-03-24 13:49:00,,0824.2,5.00,0.00,22.9,22.1,00.0,31.8,24.7,11.2,0000.0,0001.21,0003.59,0000.86
2022-03-24 13:50:00,,0824.1,5.00,0.00,22.9,22.1,00.0,31.8,24.8,11.2,0000.0,0001.22,0003.96,0000.85
2022-03-24 13:51:00,,0824.1,5.00,0.00,22.9,22.1,00.0,31.8,24.8,11.1,0000.0,0001.24,0005.06,0000.84
2022-03-24 13:52:00,,0824.2,5.00,0.00,22.9,22.1,00.0,31.8,24.8,11.1,0000.0,0001.25,0006.88,0000.83
2022-03-24 13:53:00,,0824.1,4.99,0.00,23.0,22.2,00.0,31.8,24.8,11.1,0000.0,0001.24,0006.82,0000.82
2022-03-24 13:54:00,,0824.2,5.00,0.00,23.0,22.2,00.0,31.9,24.8,11.1,0000.0,0001.22,0006.81,0000.81
2022-03-24 13:55:00,,0824.2,5.00,0.00,23.0,22.2,00.0,31.9,24.8,11.6,0000.0,0001.25,0006.85,0000.80
2022-03-24 13:56:00,,0824.2,5.01,0.00,23.0,22.2,00.0,31.9,24.8,11.7,0000.0,0001.28,0006.48,0000.80
2022-03-24 13:57:00,,0824.2,5.00,0.00,23.0,22.2,00.0,31.9,24.8,11.3,0000.0,0001.27,0006.48,0000.78
2022-03-24 13:58:00,,0824.2,5.00,0.00,23.0,22.2,00.0,31.9,24.8,11.4,0000.0,0001.24,0007.39,0000.77
2022-03-24 13:59:00,,0824.2,5.00,0.00,23.0,22.2,00.0,31.9,24.9,11.4,0000.0,0001.22,0007.37,0000.76
